Miscellaneous Local Product
Issued by NWS Hastings, NE

Home | Current Version | Previous Version | Graphics & Text | Print | Product List | Glossary On
Versions: 1 2 3 4 5 6 7 8 9 10 11 12 13 14 15 16 17 18 19 20 21 22 23 24 25 26 27 28 29 30 31 32 33 34 35 36 37 38 39 40 41 42 43 44 45 46 47 48 49 50
000
AXUS43 KGID 160402
MISGRI

GID CWA HOURLY WEATHER ROUNDUP
NATIONAL WEATHER SERVICE HASTINGS NE
1000 PM CST SUN JAN 15 2017

NOTE: "FAIR" INDICATES FEW OR NO CLOUDS BELOW 12,000 FEET WITH NO
SIGNIFICANT WEATHER AND/OR OBSTRUCTIONS TO VISIBILITY.

...SOUTH CENTRAL NEBRASKA...

CITY           SKY/WX    TMP DP  RH WIND       PRES   REMARKS
GRAND ISLAND   CLOUDY    30  30 100 SE6       30.09S FOG     WCI  24
HASTINGS       FRZ RAIN  30  29  96 SE6       30.08F WCI  24
KEARNEY        CLOUDY    30  27  86 CALM      30.07S
ORD            FRZ RAIN  31  28  89 E6        30.06F FOG     WCI  25
YORK           MOCLDY    30  30 100 CALM      30.10F FOG
AURORA         CLOUDY    30  29  97 SE5       30.09S FOG     WCI  25
LEXINGTON      MIX PCPN  31  30  94 SE5       30.05S WCI  27
HOLDREGE       MIX PCPN  31  29  94 E5        30.05F WCI  26
HEBRON         CLOUDY    31  30  96 E5        30.10F WCI  26

...NEBRASKA PANHANDLE...

CITY           SKY/WX    TMP DP  RH WIND       PRES   REMARKS
CHADRON        CLOUDY    24  20  84 SW5       30.03S WCI  18
ALLIANCE       CLOUDY    31  26  82 CALM      29.99R
SCOTTSBLUFF    CLOUDY    30  25  81 NW5       30.00S WCI  25
SIDNEY         MIX PCPN  30  28  92 NW3       29.98R FOG

...WESTERN AND NORTH CENTRAL NEBRASKA...

CITY           SKY/WX    TMP DP  RH WIND       PRES   REMARKS
VALENTINE      CLOUDY    30  23  75 CALM      30.04S
AINSWORTH      CLOUDY    31  26  79 CALM      30.04S
ONEILL         CLOUDY    32  26  77 SE5       30.08S WCI  28
BROKEN BOW     CLOUDY    31  30  96 SE6       30.03F FOG     WCI  25
IMPERIAL       CLOUDY    31  29  92 S6        30.00F WCI  25
NORTH PLATTE   MIX PCPN  32  30  92 SE5       30.02F FOG     WCI  27
MCCOOK         CLOUDY    30  30 100 SE6       30.04S WCI  24

...EASTERN NEBRASKA...

CITY           SKY/WX    TMP DP  RH WIND       PRES   REMARKS
NORFOLK        CLOUDY    29  27  92 E3        30.11S FOG
SO SIOUX CITY  CLOUDY    32  26  78 S6        30.16F WCI  26
TEKAMAH        FRZ RAIN  32  30  92 E3        30.16S FOG
COLUMBUS       CLOUDY    30  28  93 E7        30.12F WCI  23
ALBION         MIX PCPN  31  29  93 SE5       30.10S WCI  26
OMAHA EPPLEY   FRZ RAIN  32  28  85 SE6       30.16S FOG     WCI  26
OFFUTT AFB     FRZ DRZL  32  32 100 CALM      30.15S
MILLARD        DRIZZLE   33  32  94 SE3       30.16S
LINCOLN        FRZ RAIN  32  30  92 E3        30.14F
NEBRASKA CITY  MIX PCPN  32  32 100 E6        30.14F WCI  26
BEATRICE       MIX PCPN  32  32  99 E6        30.12S WCI  26
FALLS CITY     MIX PCPN  32  31  96 E8        30.13F WCI  25

...NORTHERN KANSAS...

CITY           SKY/WX    TMP DP  RH WIND       PRES   REMARKS
GOODLAND       CLOUDY    29  29 100 NE7       29.96F FOG     WCI  22
HILL CITY      CLOUDY    30  30 100 E5        30.05F FOG     WCI  25
NORTON         CLOUDY    30  27  86 NE5       30.03F WCI  25
PHILLIPSBURG   CLOUDY    32  32 100 E5        30.07F FOG     WCI  27
SMITH CENTER   MIX PCPN  30  30 100 E3        30.08S
HAYS           CLOUDY    31  30  96 NE12      30.04F WCI  22
RUSSELL        CLOUDY    30  30 100 NE7       30.04F FOG     WCI  23
CONCORDIA      CLOUDY    31  31 100 E6        30.09S WCI  25
SALINA         CLOUDY    32  30  92 NE10      30.08F FOG     WCI  24
TOPEKA         LGT RAIN  33  30  88 E7        30.12F WCI  27



USA.gov is the U.S. government's official web portal to all federal, state and local government web resources and services.